TimeCST,TemperatureF,Dew PointF,Humidity,Sea Level PressureIn,VisibilityMPH,Wind Direction,Wind SpeedMPH,Gust SpeedMPH,PrecipitationIn,Events,Conditions,WindDirDegrees,DateUTC
12:15 AM,32.2,32.0,99,29.83,2.5,SE,3.5,-,N/A,,Overcast,130,2013-01-28 06:15:00
12:35 AM,32.4,32.2,99,29.82,3.0,SE,3.5,-,N/A,,Overcast,130,2013-01-28 06:35:00
12:55 AM,32.5,32.4,99,29.81,2.0,Calm,Calm,-,N/A,,Overcast,0,2013-01-28 06:55:00
1:15 AM,32.2,32.0,99,29.80,2.0,Calm,Calm,-,N/A,,Overcast,0,2013-01-28 07:15:00
1:35 AM,32.4,32.2,99,29.80,2.0,Calm,Calm,-,N/A,,Overcast,0,2013-01-28 07:35:00
1:55 AM,32.4,32.2,99,29.79,2.0,East,4.6,-,N/A,,Overcast,80,2013-01-28 07:55:00
2:15 AM,32.4,32.4,100,29.79,2.0,Calm,Calm,-,N/A,,Overcast,0,2013-01-28 08:15:00
2:55 AM,32.5,32.5,100,29.77,2.0,Calm,Calm,-,N/A,,Overcast,0,2013-01-28 08:55:00
3:15 AM,32.7,32.7,100,29.77,1.2,Calm,Calm,-,N/A,,Overcast,0,2013-01-28 09:15:00
3:35 AM,32.9,32.9,100,29.77,1.2,Calm,Calm,-,N/A,,Overcast,0,2013-01-28 09:35:00
4:15 AM,33.1,33.1,100,29.76,1.2,Calm,Calm,-,N/A,,Overcast,0,2013-01-28 10:15:00
4:35 AM,32.9,32.9,100,29.77,1.2,Calm,Calm,-,N/A,,Overcast,0,2013-01-28 10:35:00
4:55 AM,32.5,32.5,100,29.76,0.8,Calm,Calm,-,N/A,,Overcast,0,2013-01-28 10:55:00
5:15 AM,32.5,32.5,100,29.77,0.8,Calm,Calm,-,N/A,,Overcast,0,2013-01-28 11:15:00
5:35 AM,32.5,32.5,100,29.77,0.5,Calm,Calm,-,N/A,Fog,Fog,0,2013-01-28 11:35:00
6:15 AM,33.8,33.8,100,29.79,0.5,Calm,Calm,-,N/A,Fog,Fog,0,2013-01-28 12:15:00
6:35 AM,33.8,33.8,100,29.80,0.5,WSW,3.5,-,N/A,Fog,Fog,250,2013-01-28 12:35:00
6:55 AM,33.8,33.8,100,29.81,0.8,West,3.5,-,N/A,,Overcast,260,2013-01-28 12:55:00
7:15 AM,34.2,34.2,100,29.82,0.8,West,5.8,-,N/A,,Overcast,280,2013-01-28 13:15:00
7:35 AM,34.2,34.2,100,29.84,1.5,West,5.8,-,N/A,,Overcast,270,2013-01-28 13:35:00
7:55 AM,34.3,34.3,100,29.84,4.0,West,6.9,-,N/A,,Overcast,280,2013-01-28 13:55:00
8:15 AM,34.3,34.3,100,29.85,5.0,West,6.9,-,N/A,,Overcast,280,2013-01-28 14:15:00
8:35 AM,34.3,34.0,99,29.86,5.0,West,5.8,-,N/A,,Overcast,280,2013-01-28 14:35:00
8:55 AM,34.3,33.8,98,29.86,7.0,West,6.9,-,N/A,,Overcast,280,2013-01-28 14:55:00
9:15 AM,34.7,33.4,95,29.87,7.0,WNW,9.2,-,N/A,,Overcast,290,2013-01-28 15:15:00
9:35 AM,34.7,33.1,94,29.89,10.0,West,5.8,-,N/A,,Overcast,280,2013-01-28 15:35:00
9:55 AM,34.7,32.9,93,29.89,10.0,WNW,5.8,-,N/A,,Overcast,290,2013-01-28 15:55:00
10:15 AM,35.1,32.7,91,29.90,10.0,NW,10.4,-,N/A,,Overcast,310,2013-01-28 16:15:00
10:35 AM,35.1,32.2,89,29.91,10.0,WNW,10.4,-,N/A,,Overcast,300,2013-01-28 16:35:00
11:15 AM,36.0,32.4,87,29.90,10.0,NW,5.8,-,N/A,,Overcast,310,2013-01-28 17:15:00
11:35 AM,36.9,32.5,84,29.90,10.0,NW,8.1,-,N/A,,Mostly Cloudy,310,2013-01-28 17:35:00
12:15 PM,38.7,33.6,82,29.90,10.0,NW,4.6,-,N/A,,Mostly Cloudy,310,2013-01-28 18:15:00
12:35 PM,37.6,32.2,81,29.90,10.0,WNW,4.6,-,N/A,,Overcast,290,2013-01-28 18:35:00
12:55 PM,37.8,32.0,80,29.90,10.0,West,6.9,-,N/A,,Overcast,270,2013-01-28 18:55:00
1:15 PM,38.5,32.4,79,29.89,10.0,WNW,4.6,-,N/A,,Overcast,290,2013-01-28 19:15:00
1:35 PM,37.6,32.5,82,29.89,10.0,NNW,4.6,-,N/A,,Scattered Clouds,330,2013-01-28 19:35:00
1:55 PM,38.3,32.0,78,29.89,10.0,Calm,Calm,-,N/A,,Scattered Clouds,0,2013-01-28 19:55:00
2:15 PM,38.3,32.0,78,29.90,10.0,Calm,Calm,-,N/A,,Mostly Cloudy,0,2013-01-28 20:15:00
2:35 PM,39.0,32.5,78,29.91,10.0,West,3.5,-,N/A,,Scattered Clouds,260,2013-01-28 20:35:00
2:55 PM,38.5,32.2,78,29.91,10.0,Calm,Calm,-,N/A,,Mostly Cloudy,0,2013-01-28 20:55:00
3:15 PM,38.5,32.2,78,29.92,10.0,Calm,Calm,-,N/A,,Scattered Clouds,0,2013-01-28 21:15:00
3:35 PM,38.5,32.0,78,29.92,10.0,Calm,Calm,-,N/A,,Scattered Clouds,0,2013-01-28 21:35:00
3:55 PM,38.3,32.0,78,29.93,10.0,Calm,Calm,-,N/A,,Clear,0,2013-01-28 21:55:00
4:15 PM,38.3,32.0,78,29.92,10.0,Calm,Calm,-,N/A,,Clear,0,2013-01-28 22:15:00
4:35 PM,37.0,31.8,81,29.92,10.0,Calm,Calm,-,N/A,,Clear,0,2013-01-28 22:35:00
4:55 PM,33.6,30.6,89,29.91,10.0,NE,4.6,-,N/A,,Clear,50,2013-01-28 22:55:00
5:15 PM,33.6,31.1,90,29.92,10.0,ENE,3.5,-,N/A,,Clear,70,2013-01-28 23:15:00
5:35 PM,32.0,30.2,93,29.91,10.0,NE,6.9,-,N/A,,Clear,40,2013-01-28 23:35:00
5:55 PM,32.2,30.2,92,29.90,10.0,NE,6.9,-,N/A,,Clear,50,2013-01-28 23:55:00
6:15 PM,32.5,30.6,92,29.91,10.0,East,4.6,-,N/A,,Clear,80,2013-01-29 00:15:00
6:35 PM,32.0,30.2,93,29.92,10.0,ESE,3.5,-,N/A,,Clear,120,2013-01-29 00:35:00
6:55 PM,31.6,30.0,94,29.92,10.0,ENE,3.5,-,N/A,,Clear,70,2013-01-29 00:55:00
7:15 PM,31.5,30.0,94,29.92,7.0,ESE,4.6,-,N/A,,Clear,110,2013-01-29 01:15:00
7:35 PM,32.0,30.2,93,29.91,10.0,East,6.9,-,N/A,,Clear,100,2013-01-29 01:35:00
7:55 PM,32.2,30.7,94,29.92,10.0,East,4.6,-,N/A,,Scattered Clouds,100,2013-01-29 01:55:00
8:15 PM,32.0,30.2,93,29.91,10.0,East,4.6,-,N/A,,Clear,100,2013-01-29 02:15:00
8:35 PM,32.0,30.2,93,29.90,10.0,East,5.8,-,N/A,,Clear,100,2013-01-29 02:35:00
8:55 PM,32.9,31.6,95,29.91,10.0,SE,5.8,-,N/A,,Mostly Cloudy,130,2013-01-29 02:55:00
9:15 PM,33.6,32.0,94,29.89,5.0,ESE,5.8,-,N/A,,Overcast,110,2013-01-29 03:15:00
9:35 PM,34.0,32.2,93,29.88,10.0,SE,5.8,-,N/A,,Overcast,140,2013-01-29 03:35:00
9:55 PM,34.5,32.5,92,29.86,10.0,ESE,8.1,-,N/A,,Overcast,110,2013-01-29 03:55:00
10:15 PM,35.2,32.5,90,29.84,10.0,ESE,10.4,-,N/A,,Overcast,110,2013-01-29 04:15:00
10:35 PM,35.6,32.4,88,29.81,10.0,East,11.5,-,N/A,,Overcast,100,2013-01-29 04:35:00
10:55 PM,35.8,32.0,86,29.80,10.0,ESE,12.7,-,N/A,,Overcast,110,2013-01-29 04:55:00
11:15 PM,36.1,32.0,85,29.79,10.0,ESE,11.5,16.1,N/A,,Overcast,110,2013-01-29 05:15:00
11:35 PM,36.0,32.0,86,29.77,10.0,ESE,12.7,18.4,N/A,,Overcast,120,2013-01-29 05:35:00
11:55 PM,36.1,33.1,89,29.75,10.0,ESE,16.1,20.7,N/A,,Overcast,110,2013-01-29 05:55:00